Location: Horowhenua
(40.7500°S, 175.3333°E)
Time: 05:57:51
(UTC+00:00)

Meteor 2-10 - Pass Details

Date: 28 January 2023
Orbit: 738 x 868 km, 81.2° (Epoch: 01 April)

Event Time Altitude Azimuth Distance (km) Brightness Sun altitude
Rises 14:12:58 0° 190° (S) 3,378 8.1 -26.6°
Reaches altitude 10° 14:15:21 10° 190° (S) 2,457 7.3 -26.3°
Maximum altitude 14:20:58 87° 278° (W) 860 4.1 -25.8°
Enters shadow 14:21:41 70° 1° (N) 910 4.1 -25.8°
